| time (UTC) | temp F | wind direction | speed MPH | gust MPH | rain 1hr in | rain 24hr in | rain mn in | humidity % | barometer mb |
| 20260905114843 | 73 | 213 | 6.0 | 8.0 | 0.00 | 0.00 | 0.00 | 67 | 1013.9 |
| 20260905113656 | 73 | 213 | 6.0 | 8.0 | 0.00 | 0.00 | 0.00 | 68 | 1014.2 |
| 20260905113352 | 73 | 213 | 6.0 | 8.0 | 0.00 | 0.00 | 0.00 | 67 | 1014.2 |
| 20260905113051 | 73 | 213 | 7.0 | 10.0 | 0.00 | 0.00 | 0.00 | 67 | 1014.3 |
| 20260905112317 | 74 | 213 | 7.0 | 10.0 | 0.00 | 0.00 | 0.00 | 67 | 1014.3 |
| 20260905112012 | 74 | 213 | 7.0 | 10.0 | 0.00 | 0.00 | 0.00 | 67 | 1014.3 |
| 20260905111705 | 74 | 213 | 7.0 | 10.0 | 0.00 | 0.00 | 0.00 | 67 | 1014.3 |
| 20260905111409 | 74 | 213 | 7.0 | 10.0 | 0.00 | 0.00 | 0.00 | 67 | 1014.3 |
| 20260905111103 | 74 | 213 | 6.0 | 9.0 | 0.00 | 0.00 | 0.00 | 67 | 1014.4 |
| 20260905110755 | 74 | 213 | 6.0 | 9.0 | 0.00 | 0.00 | 0.00 | 67 | 1014.5 |
| 20260905110451 | 74 | 213 | 7.0 | 10.0 | 0.00 | 0.00 | 0.00 | 67 | 1014.5 |
| 20260905110142 | 74 | 213 | 7.0 | 10.0 | 0.00 | 0.00 | 0.00 | 66 | 1014.5 |
| 20260905105829 | 75 | 213 | 7.0 | 10.0 | 0.00 | 0.00 | 0.00 | 66 | 1014.6 |
| 20260905105532 | 75 | 213 | 7.0 | 13.0 | 0.00 | 0.00 | 0.00 | 65 | 1014.6 |
| 20260905105220 | 75 | 213 | 8.0 | 13.0 | 0.00 | 0.00 | 0.00 | 65 | 1014.7 |
| 20260905104910 | 75 | 213 | 8.0 | 13.0 | 0.00 | 0.00 | 0.00 | 65 | 1014.7 |
| 20260905104610 | 75 | 213 | 9.0 | 17.0 | 0.00 | 0.00 | 0.00 | 64 | 1014.5 |
| 20260905104314 | 75 | 213 | 10.0 | 17.0 | 0.00 | 0.00 | 0.00 | 64 | 1014.5 |
| 20260905104008 | 76 | 213 | 11.0 | 17.0 | 0.00 | 0.00 | 0.00 | 64 | 1014.5 |
| 20260905103656 | 76 | 212 | 12.0 | 17.0 | 0.00 | 0.00 | 0.00 | 64 | 1014.4 |
| 20260905102926 | 76 | 202 | 13.0 | 19.0 | 0.00 | 0.00 | 0.00 | 64 | 1014.4 |
| 20260905101306 | 76 | 210 | 13.0 | 19.0 | 0.00 | 0.00 | 0.00 | 65 | 1014.3 |
| 20260905101003 | 76 | 212 | 13.0 | 20.0 | 0.00 | 0.00 | 0.00 | 65 | 1014.3 |
| 20260905100706 | 76 | 212 | 13.0 | 20.0 | 0.00 | 0.00 | 0.00 | 66 | 1014.3 |
| 20260905100357 | 76 | 218 | 13.0 | 20.0 | 0.00 | 0.00 | 0.00 | 66 | 1014.4 |
| 20260905095631 | 76 | 210 | 13.0 | 20.0 | 0.00 | 0.00 | 0.00 | 67 | 1014.4 |
| 20260905095317 | 76 | 214 | 13.0 | 20.0 | 0.00 | 0.00 | 0.00 | 67 | 1014.3 |
| 20260905095008 | 76 | 209 | 13.0 | 19.0 | 0.00 | 0.00 | 0.00 | 67 | 1014.3 |
| 20260905094710 | 76 | 211 | 13.0 | 19.0 | 0.00 | 0.00 | 0.00 | 67 | 1014.4 |
| 20260905093944 | 76 | 215 | 12.0 | 19.0 | 0.00 | 0.00 | 0.00 | 68 | 1014.4 |
| 20260905093630 | 76 | 212 | 12.0 | 21.0 | 0.00 | 0.00 | 0.00 | 68 | 1014.5 |
| 20260905093324 | 76 | 213 | 13.0 | 21.0 | 0.00 | 0.00 | 0.00 | 68 | 1014.4 |
| 20260905093013 | 76 | 213 | 13.0 | 21.0 | 0.00 | 0.00 | 0.00 | 68 | 1014.4 |
| 20260905092714 | 76 | 213 | 14.0 | 24.0 | 0.00 | 0.00 | 0.00 | 68 | 1014.4 |
| 20260905091542 | 76 | 211 | 17.0 | 24.0 | 0.00 | 0.00 | 0.00 | 67 | 1014.4 |
| 20260905091232 | 76 | 221 | 16.0 | 24.0 | 0.00 | 0.00 | 0.00 | 67 | 1014.4 |
| 20260905090932 | 76 | 218 | 15.0 | 24.0 | 0.00 | 0.00 | 0.00 | 66 | 1014.4 |
| 20260905090212 | 76 | 214 | 14.0 | 21.0 | 0.00 | 0.00 | 0.00 | 64 | 1014.5 |
| 20260905085905 | 76 | 213 | 14.0 | 22.0 | 0.00 | 0.00 | 0.00 | 64 | 1014.7 |
| 20260905085142 | 77 | 205 | 15.0 | 22.0 | 0.00 | 0.00 | 0.00 | 63 | 1014.6 |
| 20260905084838 | 77 | 201 | 16.0 | 24.0 | 0.00 | 0.00 | 0.00 | 63 | 1014.7 |
| 20260905084541 | 77 | 206 | 17.0 | 24.0 | 0.00 | 0.00 | 0.00 | 63 | 1014.6 |
| 20260905084228 | 77 | 205 | 17.0 | 24.0 | 0.00 | 0.00 | 0.00 | 63 | 1014.7 |
| 20260905083916 | 77 | 209 | 16.0 | 28.0 | 0.00 | 0.00 | 0.00 | 63 | 1014.6 |
| 20260905082729 | 77 | 204 | 19.0 | 28.0 | 0.00 | 0.00 | 0.00 | 62 | 1014.7 |
| 20260905082430 | 77 | 222 | 19.0 | 28.0 | 0.00 | 0.00 | 0.00 | 62 | 1014.7 |
| 20260905082130 | 77 | 200 | 19.0 | 28.0 | 0.00 | 0.00 | 0.00 | 62 | 1014.6 |
| 20260905081829 | 78 | 216 | 19.0 | 25.0 | 0.00 | 0.00 | 0.00 | 61 | 1014.8 |
| 20260905081517 | 78 | 209 | 19.0 | 25.0 | 0.00 | 0.00 | 0.00 | 61 | 1014.7 |
| 20260905081205 | 78 | 214 | 19.0 | 25.0 | 0.00 | 0.00 | 0.00 | 60 | 1014.7 |
| 20260905080851 | 78 | 215 | 19.0 | 25.0 | 0.00 | 0.00 | 0.00 | 60 | 1014.7 |
| 20260905080541 | 78 | 209 | 18.0 | 25.0 | 0.00 | 0.00 | 0.00 | 60 | 1014.8 |
| 20260905080239 | 78 | 213 | 17.0 | 25.0 | 0.00 | 0.00 | 0.00 | 61 | 1014.7 |
| 20260905075925 | 78 | 211 | 18.0 | 25.0 | 0.00 | 0.00 | 0.00 | 61 | 1014.8 |
| 20260905075621 | 78 | 207 | 18.0 | 24.0 | 0.00 | 0.00 | 0.00 | 61 | 1014.7 |
| 20260905075324 | 77 | 208 | 18.0 | 24.0 | 0.00 | 0.00 | 0.00 | 61 | 1014.7 |
| 20260905075018 | 77 | 213 | 18.0 | 24.0 | 0.00 | 0.00 | 0.00 | 61 | 1014.7 |
| 20260905074708 | 77 | 202 | 18.0 | 24.0 | 0.00 | 0.00 | 0.00 | 61 | 1014.7 |
| 20260905074358 | 77 | 215 | 18.0 | 28.0 | 0.00 | 0.00 | 0.00 | 61 | 1014.7 |
| 20260905074050 | 77 | 202 | 19.0 | 28.0 | 0.00 | 0.00 | 0.00 | 60 | 1014.8 |
| 20260905073740 | 77 | 202 | 20.0 | 28.0 | 0.00 | 0.00 | 0.00 | 60 | 1014.7 |
| 20260905073428 | 77 | 201 | 20.0 | 28.0 | 0.00 | 0.00 | 0.00 | 59 | 1014.8 |
| 20260905072706 | 76 | 201 | 20.0 | 28.0 | 0.00 | 0.00 | 0.00 | 59 | 1014.9 |
| 20260905071939 | 76 | 204 | 20.0 | 28.0 | 0.00 | 0.00 | 0.00 | 59 | 1015.0 |
| 20260905071632 | 76 | 207 | 20.0 | 28.0 | 0.00 | 0.00 | 0.00 | 60 | 1015.0 |
| 20260905071321 | 76 | 208 | 21.0 | 28.0 | 0.00 | 0.00 | 0.00 | 60 | 1015.0 |
| 20260905071020 | 76 | 213 | 20.0 | 28.0 | 0.00 | 0.00 | 0.00 | 60 | 1015.0 |
| 20260905070311 | 75 | 217 | 19.0 | 28.0 | 0.00 | 0.00 | 0.00 | 62 | 1015.0 |
| 20260905070009 | 75 | 217 | 18.0 | 26.0 | 0.00 | 0.00 | 0.00 | 63 | 1015.1 |
| 20260905065701 | 74 | 214 | 17.0 | 24.0 | 0.00 | 0.00 | 0.00 | 64 | 1015.0 |
| 20260905065405 | 74 | 221 | 16.0 | 23.0 | 0.00 | 0.00 | 0.00 | 65 | 1015.1 |
| 20260905065057 | 74 | 227 | 16.0 | 24.0 | 0.00 | 0.00 | 0.00 | 65 | 1015.2 |
| 20260905064759 | 74 | 225 | 16.0 | 24.0 | 0.00 | 0.00 | 0.00 | 65 | 1015.2 |
| 20260905064449 | 74 | 217 | 16.0 | 24.0 | 0.00 | 0.00 | 0.00 | 64 | 1015.3 |
| 20260905064144 | 74 | 216 | 16.0 | 24.0 | 0.00 | 0.00 | 0.00 | 64 | 1015.3 |
| 20260905063846 | 74 | 215 | 16.0 | 24.0 | 0.00 | 0.00 | 0.00 | 64 | 1015.3 |
| 20260905063546 | 74 | 215 | 17.0 | 24.0 | 0.00 | 0.00 | 0.00 | 64 | 1015.4 |
| 20260905062820 | 74 | 218 | 14.0 | 21.0 | 0.00 | 0.00 | 0.00 | 65 | 1015.3 |
| 20260905062046 | 75 | 214 | 13.0 | 21.0 | 0.00 | 0.00 | 0.00 | 65 | 1015.1 |
| 20260905061733 | 75 | 232 | 14.0 | 21.0 | 0.00 | 0.00 | 0.00 | 64 | 1015.3 |
| 20260905061004 | 76 | 210 | 14.0 | 21.0 | 0.00 | 0.00 | 0.00 | 62 | 1015.0 |
| 20260905060653 | 76 | 218 | 13.0 | 20.0 | 0.00 | 0.00 | 0.00 | 60 | 1015.0 |
| 20260905060342 | 77 | 215 | 13.0 | 19.0 | 0.00 | 0.00 | 0.00 | 59 | 1014.9 |
| 20260905060029 | 77 | 219 | 13.0 | 21.0 | 0.00 | 0.00 | 0.00 | 58 | 1014.9 |
| 20260905055720 | 77 | 211 | 13.0 | 21.0 | 0.00 | 0.00 | 0.00 | 59 | 1014.8 |
| 20260905055420 | 77 | 209 | 13.0 | 21.0 | 0.00 | 0.00 | 0.00 | 59 | 1014.6 |
| 20260905055116 | 77 | 217 | 14.0 | 21.0 | 0.00 | 0.00 | 0.00 | 59 | 1014.7 |
| 20260905054345 | 77 | 206 | 14.0 | 21.0 | 0.00 | 0.00 | 0.00 | 59 | 1014.8 |
| 20260905054042 | 77 | 204 | 14.0 | 21.0 | 0.00 | 0.00 | 0.00 | 60 | 1014.8 |
| 20260905053741 | 76 | 196 | 15.0 | 30.0 | 0.00 | 0.00 | 0.00 | 61 | 1014.9 |
| 20260905053434 | 76 | 188 | 17.0 | 30.0 | 0.00 | 0.00 | 0.00 | 62 | 1014.8 |
| 20260905053125 | 76 | 196 | 20.0 | 30.0 | 0.00 | 0.00 | 0.00 | 62 | 1014.8 |
| 20260905052819 | 76 | 188 | 22.0 | 30.0 | 0.00 | 0.00 | 0.00 | 62 | 1014.9 |
| 20260905052516 | 77 | 187 | 22.0 | 30.0 | 0.00 | 0.00 | 0.00 | 61 | 1014.8 |
| 20260905052203 | 77 | 214 | 20.0 | 30.0 | 0.00 | 0.00 | 0.00 | 59 | 1014.9 |
| 20260905051900 | 78 | 186 | 19.0 | 27.0 | 0.00 | 0.00 | 0.00 | 57 | 1015.0 |
| 20260905051604 | 78 | 199 | 18.0 | 24.0 | 0.00 | 0.00 | 0.00 | 55 | 1014.9 |
| 20260905051252 | 79 | 198 | 17.0 | 24.0 | 0.00 | 0.00 | 0.00 | 53 | 1014.9 |
| 20260905050952 | 79 | 189 | 16.0 | 24.0 | 0.00 | 0.00 | 0.00 | 53 | 1014.9 |
| 20260905050216 | 78 | 180 | 13.0 | 22.0 | 0.00 | 0.00 | 0.00 | 53 | 1014.3 |
| 20260905045911 | 79 | 186 | 13.0 | 28.0 | 0.00 | 0.00 | 0.00 | 52 | 1014.4 |
| 20260905045607 | 79 | 183 | 14.0 | 28.0 | 0.00 | 0.00 | 0.00 | 52 | 1014.2 |
| 20260905045300 | 79 | 172 | 14.0 | 28.0 | 0.00 | 0.00 | 0.00 | 52 | 1014.1 |
| 20260905044957 | 79 | 180 | 16.0 | 29.0 | 0.00 | 0.00 | 0.00 | 51 | 1014.0 |
| 20260905044643 | 79 | 180 | 17.0 | 29.0 | 0.00 | 0.00 | 0.00 | 51 | 1014.0 |
| 20260905044332 | 80 | 177 | 19.0 | 29.0 | 0.00 | 0.00 | 0.00 | 50 | 1014.2 |
| 20260905043608 | 80 | 175 | 21.0 | 32.0 | 0.00 | 0.00 | 0.00 | 49 | 1014.4 |
| 20260905043256 | 80 | 188 | 21.0 | 32.0 | 0.00 | 0.00 | 0.00 | 49 | 1014.1 |
| 20260905042954 | 80 | 189 | 20.0 | 32.0 | 0.00 | 0.00 | 0.00 | 49 | 1014.1 |
| 20260905042652 | 80 | 184 | 20.0 | 32.0 | 0.00 | 0.00 | 0.00 | 50 | 1014.4 |
| 20260905042354 | 80 | 178 | 21.0 | 32.0 | 0.00 | 0.00 | 0.00 | 51 | 1014.3 |
| 20260905042048 | 80 | 192 | 21.0 | 30.0 | 0.00 | 0.00 | 0.00 | 52 | 1014.4 |
| 20260905041741 | 80 | 182 | 21.0 | 30.0 | 0.00 | 0.00 | 0.00 | 52 | 1014.3 |
| 20260905041432 | 80 | 193 | 20.0 | 29.0 | 0.00 | 0.00 | 0.00 | 51 | 1014.3 |
| 20260905041119 | 80 | 188 | 20.0 | 29.0 | 0.00 | 0.00 | 0.00 | 52 | 1014.3 |
| 20260905040816 | 79 | 178 | 19.0 | 29.0 | 0.00 | 0.00 | 0.00 | 52 | 1014.3 |
| 20260905040509 | 79 | 173 | 18.0 | 29.0 | 0.00 | 0.00 | 0.00 | 53 | 1014.5 |
| 20260905040204 | 79 | 193 | 18.0 | 29.0 | 0.00 | 0.00 | 0.00 | 53 | 1014.7 |
| 20260905035858 | 79 | 173 | 18.0 | 29.0 | 0.00 | 0.00 | 0.00 | 54 | 1014.7 |
| 20260905035554 | 80 | 182 | 18.0 | 30.0 | 0.00 | 0.00 | 0.00 | 54 | 1014.7 |
| 20260905035247 | 80 | 192 | 17.0 | 30.0 | 0.00 | 0.00 | 0.00 | 54 | 1014.8 |
| 20260905034950 | 80 | 184 | 16.0 | 30.0 | 0.00 | 0.00 | 0.00 | 54 | 1014.8 |
| 20260905034641 | 79 | 173 | 17.0 | 30.0 | 0.00 | 0.00 | 0.00 | 55 | 1014.9 |
| 20260905034327 | 79 | 179 | 18.0 | 30.0 | 0.00 | 0.00 | 0.00 | 55 | 1014.8 |
| 20260905034018 | 79 | 177 | 19.0 | 30.0 | 0.00 | 0.00 | 0.00 | 55 | 1014.8 |
| 20260905033721 | 80 | 187 | 18.0 | 28.0 | 0.00 | 0.00 | 0.00 | 55 | 1014.8 |
| 20260905033421 | 80 | 182 | 18.0 | 28.0 | 0.00 | 0.00 | 0.00 | 55 | 1014.7 |
| 20260905033116 | 80 | 183 | 17.0 | 27.0 | 0.00 | 0.00 | 0.00 | 54 | 1014.8 |
| 20260905032809 | 81 | 190 | 17.0 | 27.0 | 0.00 | 0.00 | 0.00 | 52 | 1014.8 |
| 20260905032036 | 82 | 190 | 15.0 | 27.0 | 0.00 | 0.00 | 0.00 | 47 | 1014.8 |
| 20260905031726 | 82 | 182 | 15.0 | 23.0 | 0.00 | 0.00 | 0.00 | 46 | 1014.8 |
| 20260905030948 | 82 | 180 | 14.0 | 22.0 | 0.00 | 0.00 | 0.00 | 45 | 1014.6 |
| 20260905030642 | 82 | 176 | 13.0 | 22.0 | 0.00 | 0.00 | 0.00 | 45 | 1014.5 |
| 20260905030343 | 82 | 180 | 13.0 | 22.0 | 0.00 | 0.00 | 0.00 | 46 | 1014.6 |
| 20260905030043 | 82 | 186 | 13.0 | 22.0 | 0.00 | 0.00 | 0.00 | 45 | 1014.6 |
| 20260905025736 | 82 | 181 | 14.0 | 22.0 | 0.00 | 0.00 | 0.00 | 45 | 1014.5 |
| 20260905025432 | 82 | 186 | 15.0 | 22.0 | 0.00 | 0.00 | 0.00 | 45 | 1014.5 |
| 20260905025135 | 82 | 191 | 15.0 | 22.0 | 0.00 | 0.00 | 0.00 | 45 | 1014.5 |
| 20260905024838 | 82 | 188 | 15.0 | 22.0 | 0.00 | 0.00 | 0.00 | 45 | 1014.3 |
| 20260905024117 | 83 | 191 | 13.0 | 25.0 | 0.00 | 0.00 | 0.00 | 45 | 1014.2 |
| 20260905023821 | 83 | 188 | 13.0 | 25.0 | 0.00 | 0.00 | 0.00 | 44 | 1014.2 |
| 20260905023514 | 83 | 188 | 14.0 | 25.0 | 0.00 | 0.00 | 0.00 | 44 | 1014.3 |
| 20260905023217 | 83 | 194 | 14.0 | 25.0 | 0.00 | 0.00 | 0.00 | 44 | 1014.2 |
| 20260905022906 | 83 | 186 | 13.0 | 25.0 | 0.00 | 0.00 | 0.00 | 44 | 1014.1 |
| 20260905022126 | 83 | 187 | 9.0 | 17.0 | 0.00 | 0.00 | 0.00 | 42 | 1013.9 |
| 20260905021813 | 83 | 189 | 8.0 | 14.0 | 0.00 | 0.00 | 0.00 | 42 | 1013.9 |
| 20260905021509 | 83 | 192 | 8.0 | 14.0 | 0.00 | 0.00 | 0.00 | 42 | 1013.9 |
| 20260905021209 | 83 | 193 | 8.0 | 14.0 | 0.00 | 0.00 | 0.00 | 42 | 1013.9 |
| 20260905020440 | 82 | 196 | 7.0 | 12.0 | 0.00 | 0.00 | 0.00 | 43 | 1013.6 |
| 20260905020140 | 82 | 197 | 6.0 | 11.0 | 0.00 | 0.00 | 0.00 | 44 | 1013.6 |
| 20260905014953 | 81 | 200 | 2.0 | 7.0 | 0.00 | 0.00 | 0.00 | 46 | 1013.2 |
| 20260905014649 | 81 | 200 | 3.0 | 7.0 | 0.00 | 0.00 | 0.00 | 47 | 1013.0 |
| 20260905014352 | 81 | 200 | 4.0 | 7.0 | 0.00 | 0.00 | 0.00 | 47 | 1013.0 |
| 20260905014054 | 81 | 200 | 4.0 | 8.0 | 0.00 | 0.00 | 0.00 | 46 | 1013.0 |
| 20260905013747 | 81 | 200 | 5.0 | 8.0 | 0.00 | 0.00 | 0.00 | 46 | 1012.9 |
| 20260905013449 | 81 | 200 | 4.0 | 8.0 | 0.00 | 0.00 | 0.00 | 47 | 1012.8 |
| 20260905013143 | 81 | 200 | 4.0 | 12.0 | 0.00 | 0.00 | 0.00 | 47 | 1012.8 |
| 20260905012843 | 81 | 200 | 4.0 | 12.0 | 0.00 | 0.00 | 0.00 | 46 | 1012.7 |
| 20260905012533 | 82 | 200 | 5.0 | 12.0 | 0.00 | 0.00 | 0.00 | 46 | 1012.8 |
| 20260905012236 | 82 | 200 | 6.0 | 12.0 | 0.00 | 0.00 | 0.00 | 45 | 1012.8 |
| 20260905011924 | 83 | 200 | 8.0 | 20.0 | 0.00 | 0.00 | 0.00 | 45 | 1012.7 |
| 20260905011621 | 83 | 200 | 10.0 | 20.0 | 0.00 | 0.00 | 0.00 | 45 | 1012.6 |
| 20260905011318 | 83 | 200 | 11.0 | 20.0 | 0.00 | 0.00 | 0.00 | 45 | 1012.5 |
| 20260905011006 | 83 | 200 | 12.0 | 20.0 | 0.00 | 0.00 | 0.00 | 45 | 1012.5 |
| 20260905005821 | 84 | 201 | 12.0 | 20.0 | 0.00 | 0.00 | 0.00 | 47 | 1012.3 |
| 20260905005516 | 84 | 198 | 13.0 | 20.0 | 0.00 | 0.00 | 0.00 | 48 | 1012.3 |
| 20260905005211 | 83 | 196 | 13.0 | 20.0 | 0.00 | 0.00 | 0.00 | 48 | 1012.3 |
| 20260905004904 | 83 | 197 | 13.0 | 20.0 | 0.00 | 0.00 | 0.00 | 49 | 1012.3 |
| 20260905004608 | 83 | 192 | 12.0 | 20.0 | 0.00 | 0.00 | 0.00 | 49 | 1012.3 |
| 20260905004308 | 83 | 198 | 12.0 | 20.0 | 0.00 | 0.00 | 0.00 | 50 | 1012.2 |
| 20260905003959 | 83 | 189 | 12.0 | 20.0 | 0.00 | 0.00 | 0.00 | 50 | 1012.1 |
| 20260905003226 | 84 | 187 | 11.0 | 18.0 | 0.00 | 0.00 | 0.00 | 51 | 1012.1 |
| 20260905002919 | 84 | 193 | 11.0 | 17.0 | 0.00 | 0.00 | 0.00 | 50 | 1012.1 |
| 20260905002619 | 84 | 198 | 12.0 | 17.0 | 0.00 | 0.00 | 0.00 | 50 | 1012.4 |
| 20260905002314 | 84 | 208 | 11.0 | 18.0 | 0.00 | 0.00 | 0.00 | 50 | 1012.5 |
| 20260905002015 | 84 | 215 | 11.0 | 18.0 | 0.00 | 0.00 | 0.00 | 51 | 1012.8 |
| 20260905001712 | 84 | 217 | 11.0 | 18.0 | 0.00 | 0.00 | 0.00 | 49 | 1013.1 |
| 20260905001400 | 84 | 224 | 11.0 | 18.0 | 0.00 | 0.00 | 0.00 | 47 | 1013.0 |
| 20260905001048 | 85 | 232 | 12.0 | 18.0 | 0.00 | 0.00 | 0.00 | 46 | 1013.2 |
| 20260905000735 | 85 | 236 | 12.0 | 18.0 | 0.00 | 0.00 | 0.00 | 45 | 1013.2 |
| 20260905000432 | 84 | 234 | 12.0 | 18.0 | 0.00 | 0.00 | 0.00 | 45 | 1013.0 |
| 20260905000130 | 84 | 230 | 13.0 | 22.0 | 0.00 | 0.00 | 0.00 | 45 | 1013.1 |
| 20260904235820 | 84 | 236 | 13.0 | 22.0 | 0.00 | 0.00 | 0.00 | 45 | 1013.2 |
| 20260904235518 | 85 | 240 | 14.0 | 22.0 | 0.00 | 0.00 | 0.00 | 45 | 1013.3 |
| 20260904235211 | 85 | 238 | 14.0 | 23.0 | 0.00 | 0.00 | 0.00 | 44 | 1013.3 |
| 20260904234448 | 86 | 241 | 14.0 | 23.0 | 0.00 | 0.00 | 0.00 | 43 | 1013.2 |
| 20260904234141 | 86 | 236 | 15.0 | 23.0 | 0.00 | 0.00 | 0.00 | 43 | 1013.1 |
| 20260904233009 | 90 | 224 | 13.0 | 21.0 | 0.00 | 0.00 | 0.00 | 37 | 1012.9 |
| 20260904232657 | 91 | 219 | 13.0 | 22.0 | 0.00 | 0.00 | 0.00 | 37 | 1012.7 |
| 20260904231520 | 92 | 210 | 15.0 | 22.0 | 0.00 | 0.00 | 0.00 | 35 | 1012.4 |
| 20260904231220 | 92 | 204 | 15.0 | 22.0 | 0.00 | 0.00 | 0.00 | 35 | 1012.3 |
| 20260904230913 | 92 | 207 | 16.0 | 22.0 | 0.00 | 0.00 | 0.00 | 34 | 1012.2 |
| 20260904230617 | 93 | 214 | 16.0 | 22.0 | 0.00 | 0.00 | 0.00 | 34 | 1012.2 |
| 20260904230316 | 93 | 213 | 15.0 | 22.0 | 0.00 | 0.00 | 0.00 | 33 | 1012.2 |
| 20260904230009 | 94 | 210 | 15.0 | 22.0 | 0.00 | 0.00 | 0.00 | 33 | 1012.0 |
| 20260904225711 | 94 | 215 | 15.0 | 22.0 | 0.00 | 0.00 | 0.00 | 33 | 1011.9 |
| 20260904225359 | 95 | 203 | 15.0 | 22.0 | 0.00 | 0.00 | 0.00 | 32 | 1011.9 |
| 20260904225051 | 96 | 214 | 12.0 | 21.0 | 0.00 | 0.00 | 0.00 | 30 | 1011.8 |
| 20260904224332 | 96 | 190 | 8.0 | 18.0 | 0.00 | 0.00 | 0.00 | 28 | 1011.6 |
| 20260904222707 | 97 | 193 | 8.0 | 18.0 | 0.00 | 0.00 | 0.00 | 27 | 1011.6 |
| 20260904222354 | 98 | 193 | 8.0 | 18.0 | 0.00 | 0.00 | 0.00 | 28 | 1011.6 |
| 20260904222041 | 98 | 193 | 10.0 | 18.0 | 0.00 | 0.00 | 0.00 | 27 | 1011.6 |
| 20260904221742 | 98 | 194 | 10.0 | 18.0 | 0.00 | 0.00 | 0.00 | 26 | 1011.7 |
| 20260904221442 | 98 | 193 | 9.0 | 18.0 | 0.00 | 0.00 | 0.00 | 26 | 1011.6 |
| 20260904221135 | 99 | 196 | 7.0 | 14.0 | 0.00 | 0.00 | 0.00 | 26 | 1011.6 |
| 20260904220834 | 99 | 202 | 7.0 | 13.0 | 0.00 | 0.00 | 0.00 | 26 | 1011.6 |
| 20260904220538 | 99 | 209 | 7.0 | 13.0 | 0.00 | 0.00 | 0.00 | 26 | 1011.6 |
| 20260904220234 | 99 | 210 | 8.0 | 14.0 | 0.00 | 0.00 | 0.00 | 25 | 1011.6 |
| 20260904215505 | 99 | 210 | 9.0 | 14.0 | 0.00 | 0.00 | 0.00 | 25 | 1011.7 |
| 20260904215156 | 99 | 218 | 9.0 | 14.0 | 0.00 | 0.00 | 0.00 | 25 | 1011.7 |
| 20260904214846 | 99 | 218 | 9.0 | 14.0 | 0.00 | 0.00 | 0.00 | 24 | 1011.7 |
| 20260904214122 | 101 | 227 | 9.0 | 13.0 | 0.00 | 0.00 | 0.00 | 24 | 1011.8 |
| 20260904213824 | 101 | 227 | 8.0 | 13.0 | 0.00 | 0.00 | 0.00 | 24 | 1011.8 |
| 20260904213522 | 100 | 207 | 7.0 | 13.0 | 0.00 | 0.00 | 0.00 | 24 | 1011.9 |
| 20260904213217 | 100 | 207 | 5.0 | 13.0 | 0.00 | 0.00 | 0.00 | 24 | 1011.9 |
| 20260904212024 | 101 | 205 | 6.0 | 14.0 | 0.00 | 0.00 | 0.00 | 24 | 1011.8 |
| 20260904211251 | 102 | 205 | 6.0 | 17.0 | 0.00 | 0.00 | 0.00 | 24 | 1011.7 |
| 20260904210949 | 101 | 205 | 7.0 | 17.0 | 0.00 | 0.00 | 0.00 | 23 | 1011.7 |
| 20260904210640 | 101 | 212 | 7.0 | 17.0 | 0.00 | 0.00 | 0.00 | 25 | 1011.7 |
| 20260904210339 | 101 | 212 | 9.0 | 17.0 | 0.00 | 0.00 | 0.00 | 24 | 1011.8 |
| 20260904210042 | 102 | 216 | 8.0 | 17.0 | 0.00 | 0.00 | 0.00 | 24 | 1011.8 |
| 20260904205745 | 102 | 202 | 8.0 | 13.0 | 0.00 | 0.00 | 0.00 | 24 | 1011.8 |
| 20260904205439 | 101 | 195 | 7.0 | 14.0 | 0.00 | 0.00 | 0.00 | 25 | 1011.9 |
| 20260904205125 | 101 | 196 | 7.0 | 14.0 | 0.00 | 0.00 | 0.00 | 25 | 1012.0 |
| 20260904204828 | 100 | 194 | 6.0 | 14.0 | 0.00 | 0.00 | 0.00 | 27 | 1012.0 |
| 20260904204518 | 100 | 194 | 8.0 | 14.0 | 0.00 | 0.00 | 0.00 | 26 | 1012.0 |
| 20260904203808 | 100 | 197 | 7.0 | 14.0 | 0.00 | 0.00 | 0.00 | 26 | 1012.2 |
| 20260904202611 | 100 | 210 | 7.0 | 15.0 | 0.00 | 0.00 | 0.00 | 25 | 1012.2 |
| 20260904202306 | 100 | 210 | 8.0 | 15.0 | 0.00 | 0.00 | 0.00 | 25 | 1012.3 |
| 20260904201956 | 99 | 210 | 8.0 | 15.0 | 0.00 | 0.00 | 0.00 | 25 | 1012.3 |
| 20260904201648 | 99 | 208 | 6.0 | 15.0 | 0.00 | 0.00 | 0.00 | 24 | 1012.3 |
| 20260904201349 | 100 | 204 | 6.0 | 15.0 | 0.00 | 0.00 | 0.00 | 25 | 1012.2 |
| 20260904201048 | 100 | 205 | 7.0 | 17.0 | 0.00 | 0.00 | 0.00 | 25 | 1012.2 |
| 20260904200745 | 100 | 213 | 7.0 | 17.0 | 0.00 | 0.00 | 0.00 | 25 | 1012.3 |
| 20260904200439 | 100 | 215 | 7.0 | 17.0 | 0.00 | 0.00 | 0.00 | 25 | 1012.2 |
| 20260904200127 | 100 | 215 | 7.0 | 17.0 | 0.00 | 0.00 | 0.00 | 24 | 1012.2 |
| 20260904195825 | 100 | 215 | 8.0 | 17.0 | 0.00 | 0.00 | 0.00 | 24 | 1012.4 |
| 20260904195516 | 100 | 202 | 7.0 | 17.0 | 0.00 | 0.00 | 0.00 | 25 | 1012.3 |
| 20260904195207 | 100 | 198 | 7.0 | 15.0 | 0.00 | 0.00 | 0.00 | 25 | 1012.4 |
| 20260904194854 | 99 | 223 | 7.0 | 19.0 | 0.00 | 0.00 | 0.00 | 26 | 1012.3 |
| 20260904194541 | 99 | 223 | 7.0 | 19.0 | 0.00 | 0.00 | 0.00 | 26 | 1012.4 |
| 20260904194241 | 100 | 223 | 8.0 | 19.0 | 0.00 | 0.00 | 0.00 | 25 | 1012.4 |
| 20260904193941 | 100 | 205 | 9.0 | 19.0 | 0.00 | 0.00 | 0.00 | 25 | 1012.4 |
| 20260904193219 | 100 | 202 | 9.0 | 19.0 | 0.00 | 0.00 | 0.00 | 24 | 1012.5 |
| 20260904192034 | 99 | 191 | 7.0 | 17.0 | 0.00 | 0.00 | 0.00 | 27 | 1012.5 |
| 20260904191724 | 98 | 199 | 6.0 | 13.0 | 0.00 | 0.00 | 0.00 | 28 | 1012.6 |
| 20260904190544 | 98 | 188 | 4.0 | 15.0 | 0.00 | 0.00 | 0.00 | 28 | 1012.7 |
| 20260904190244 | 98 | 188 | 6.0 | 15.0 | 0.00 | 0.00 | 0.00 | 28 | 1012.7 |
| 20260904185939 | 99 | 189 | 6.0 | 15.0 | 0.00 | 0.00 | 0.00 | 28 | 1012.7 |
| 20260904185627 | 99 | 189 | 5.0 | 15.0 | 0.00 | 0.00 | 0.00 | 28 | 1012.9 |
| 20260904184901 | 98 | 235 | 4.0 | 20.0 | 0.00 | 0.00 | 0.00 | 30 | 1012.9 |
| 20260904184602 | 97 | 235 | 6.0 | 20.0 | 0.00 | 0.00 | 0.00 | 29 | 1012.9 |
| 20260904184254 | 97 | 235 | 7.0 | 20.0 | 0.00 | 0.00 | 0.00 | 29 | 1012.8 |
| 20260904183958 | 97 | 235 | 7.0 | 20.0 | 0.00 | 0.00 | 0.00 | 28 | 1013.0 |
| 20260904183225 | 97 | 209 | 5.0 | 13.0 | 0.00 | 0.00 | 0.00 | 29 | 1012.9 |
| 20260904182912 | 97 | 211 | 6.0 | 13.0 | 0.00 | 0.00 | 0.00 | 29 | 1013.0 |
| 20260904182603 | 97 | 211 | 7.0 | 13.0 | 0.00 | 0.00 | 0.00 | 30 | 1013.0 |
| 20260904182306 | 97 | 211 | 8.0 | 13.0 | 0.00 | 0.00 | 0.00 | 30 | 1013.1 |
| 20260904182004 | 97 | 211 | 6.0 | 13.0 | 0.00 | 0.00 | 0.00 | 29 | 1013.1 |
| 20260904181656 | 97 | 212 | 5.0 | 13.0 | 0.00 | 0.00 | 0.00 | 31 | 1013.2 |
| 20260904180929 | 95 | 215 | 5.0 | 11.0 | 0.00 | 0.00 | 0.00 | 33 | 1013.3 |
| 20260904180633 | 95 | 215 | 6.0 | 11.0 | 0.00 | 0.00 | 0.00 | 33 | 1013.4 |
| 20260904180328 | 95 | 215 | 6.0 | 11.0 | 0.00 | 0.00 | 0.00 | 33 | 1013.4 |
| 20260904180020 | 95 | 216 | 5.0 | 9.0 | 0.00 | 0.00 | 0.00 | 33 | 1013.4 |
| 20260904175709 | 95 | 216 | 4.0 | 12.0 | 0.00 | 0.00 | 0.00 | 33 | 1013.4 |
| 20260904175402 | 94 | 216 | 5.0 | 12.0 | 0.00 | 0.00 | 0.00 | 34 | 1013.4 |
| 20260904175059 | 94 | 216 | 6.0 | 12.0 | 0.00 | 0.00 | 0.00 | 32 | 1013.5 |
| 20260904174801 | 94 | 216 | 6.0 | 13.0 | 0.00 | 0.00 | 0.00 | 34 | 1013.5 |
| 20260904174501 | 94 | 216 | 5.0 | 13.0 | 0.00 | 0.00 | 0.00 | 34 | 1013.6 |
| 20260904174152 | 93 | 211 | 6.0 | 13.0 | 0.00 | 0.00 | 0.00 | 36 | 1013.7 |
| 20260904173851 | 93 | 209 | 7.0 | 13.0 | 0.00 | 0.00 | 0.00 | 37 | 1013.6 |
| 20260904173538 | 93 | 209 | 6.0 | 13.0 | 0.00 | 0.00 | 0.00 | 36 | 1013.6 |
| 20260904173228 | 93 | 204 | 6.0 | 13.0 | 0.00 | 0.00 | 0.00 | 39 | 1013.7 |
| 20260904172924 | 92 | 203 | 6.0 | 11.0 | 0.00 | 0.00 | 0.00 | 39 | 1013.8 |
| 20260904172628 | 92 | 205 | 6.0 | 12.0 | 0.00 | 0.00 | 0.00 | 40 | 1013.7 |
| 20260904172327 | 92 | 208 | 7.0 | 12.0 | 0.00 | 0.00 | 0.00 | 40 | 1013.7 |
| 20260904171130 | 91 | 208 | 8.0 | 12.0 | 0.00 | 0.00 | 0.00 | 38 | 1013.9 |
| 20260904170821 | 91 | 206 | 7.0 | 12.0 | 0.00 | 0.00 | 0.00 | 39 | 1014.0 |
| 20260904170104 | 89 | 207 | 6.0 | 10.0 | 0.00 | 0.00 | 0.00 | 39 | 1013.9 |
| 20260904165332 | 87 | 206 | 3.0 | 8.0 | 0.00 | 0.00 | 0.00 | 43 | 1013.9 |
| 20260904165024 | 86 | 206 | 2.0 | 7.0 | 0.00 | 0.00 | 0.00 | 49 | 1013.7 |
| 20260904164301 | 84 | 206 | 5.0 | 10.0 | 0.00 | 0.00 | 0.00 | 49 | 1013.9 |
| 20260904163954 | 83 | 206 | 6.0 | 10.0 | 0.00 | 0.00 | 0.00 | 50 | 1013.9 |
| 20260904163656 | 83 | 206 | 7.0 | 10.0 | 0.00 | 0.00 | 0.00 | 50 | 1014.0 |
| 20260904163353 | 83 | 206 | 7.0 | 14.0 | 0.00 | 0.00 | 0.00 | 51 | 1014.0 |
| 20260904163044 | 82 | 206 | 8.0 | 14.0 | 0.00 | 0.00 | 0.00 | 51 | 1014.0 |
| 20260904162737 | 82 | 206 | 8.0 | 14.0 | 0.00 | 0.00 | 0.00 | 51 | 1014.0 |
| 20260904162429 | 82 | 206 | 9.0 | 14.0 | 0.00 | 0.00 | 0.00 | 51 | 1014.0 |
| 20260904162119 | 82 | 206 | 9.0 | 14.0 | 0.00 | 0.00 | 0.00 | 51 | 1014.0 |
| 20260904161352 | 82 | 210 | 8.0 | 12.0 | 0.00 | 0.00 | 0.00 | 51 | 1014.2 |
| 20260904161046 | 82 | 210 | 8.0 | 12.0 | 0.00 | 0.00 | 0.00 | 51 | 1014.1 |
| 20260904160738 | 82 | 210 | 9.0 | 12.0 | 0.00 | 0.00 | 0.00 | 50 | 1014.0 |
| 20260904160439 | 82 | 210 | 9.0 | 12.0 | 0.00 | 0.00 | 0.00 | 50 | 1014.0 |
| 20260904160128 | 82 | 211 | 8.0 | 11.0 | 0.00 | 0.00 | 0.00 | 50 | 1014.0 |
| 20260904155817 | 83 | 212 | 8.0 | 11.0 | 0.00 | 0.00 | 0.00 | 50 | 1014.0 |
| 20260904155510 | 83 | 213 | 8.0 | 11.0 | 0.00 | 0.00 | 0.00 | 50 | 1013.9 |
| 20260904155207 | 83 | 213 | 7.0 | 11.0 | 0.00 | 0.00 | 0.00 | 51 | 1013.9 |
| 20260904154906 | 82 | 213 | 7.0 | 11.0 | 0.00 | 0.00 | 0.00 | 50 | 1013.9 |
| 20260904154136 | 83 | 213 | 8.0 | 11.0 | 0.00 | 0.00 | 0.00 | 49 | 1013.8 |
| 20260904153412 | 83 | 214 | 6.0 | 11.0 | 0.00 | 0.00 | 0.00 | 51 | 1013.9 |
| 20260904152636 | 83 | 215 | 7.0 | 13.0 | 0.00 | 0.00 | 0.00 | 50 | 1013.9 |
| 20260904152328 | 83 | 215 | 8.0 | 13.0 | 0.00 | 0.00 | 0.00 | 51 | 1013.9 |
| 20260904152028 | 82 | 215 | 8.0 | 13.0 | 0.00 | 0.00 | 0.00 | 52 | 1013.8 |
| 20260904151718 | 81 | 214 | 9.0 | 14.0 | 0.00 | 0.00 | 0.00 | 54 | 1013.8 |
| 20260904151422 | 81 | 214 | 9.0 | 14.0 | 0.00 | 0.00 | 0.00 | 54 | 1013.7 |
| 20260904151116 | 81 | 213 | 9.0 | 14.0 | 0.00 | 0.00 | 0.00 | 54 | 1013.7 |
| 20260904150355 | 80 | 212 | 10.0 | 15.0 | 0.00 | 0.00 | 0.00 | 58 | 1013.6 |
| 20260904150047 | 79 | 211 | 10.0 | 15.0 | 0.00 | 0.00 | 0.00 | 58 | 1013.6 |
| 20260904145748 | 79 | 212 | 10.0 | 15.0 | 0.00 | 0.00 | 0.00 | 58 | 1013.6 |
| 20260904145436 | 79 | 209 | 10.0 | 15.0 | 0.00 | 0.00 | 0.00 | 60 | 1013.6 |
| 20260904145139 | 78 | 209 | 11.0 | 15.0 | 0.00 | 0.00 | 0.00 | 59 | 1013.6 |
| 20260904144837 | 78 | 209 | 11.0 | 15.0 | 0.00 | 0.00 | 0.00 | 60 | 1013.6 |
| 20260904144537 | 78 | 213 | 9.0 | 14.0 | 0.00 | 0.00 | 0.00 | 62 | 1013.5 |
| 20260904144224 | 77 | 214 | 8.0 | 14.0 | 0.00 | 0.00 | 0.00 | 64 | 1013.5 |
| 20260904143921 | 77 | 217 | 6.0 | 13.0 | 0.00 | 0.00 | 0.00 | 68 | 1013.5 |
| 20260904143620 | 77 | 223 | 7.0 | 13.0 | 0.00 | 0.00 | 0.00 | 69 | 1013.6 |
| 20260904143317 | 77 | 223 | 8.0 | 17.0 | 0.00 | 0.00 | 0.00 | 65 | 1013.5 |
| 20260904143014 | 78 | 223 | 10.0 | 17.0 | 0.00 | 0.00 | 0.00 | 65 | 1013.8 |
| 20260904141843 | 79 | 212 | 11.0 | 17.0 | 0.00 | 0.00 | 0.00 | 56 | 1013.7 |
| 20260904141531 | 78 | 212 | 11.0 | 15.0 | 0.00 | 0.00 | 0.00 | 57 | 1013.7 |
| 20260904141228 | 77 | 214 | 11.0 | 15.0 | 0.00 | 0.00 | 0.00 | 58 | 1013.7 |
| 20260904140919 | 77 | 214 | 12.0 | 15.0 | 0.00 | 0.00 | 0.00 | 58 | 1013.6 |
| 20260904140606 | 77 | 214 | 11.0 | 15.0 | 0.00 | 0.00 | 0.00 | 58 | 1013.7 |
| 20260904140307 | 76 | 213 | 11.0 | 15.0 | 0.00 | 0.00 | 0.00 | 60 | 1013.7 |
| 20260904135535 | 75 | 211 | 10.0 | 15.0 | 0.00 | 0.00 | 0.00 | 62 | 1013.6 |
| 20260904135227 | 74 | 201 | 10.0 | 14.0 | 0.00 | 0.00 | 0.00 | 63 | 1013.6 |
| 20260904134915 | 74 | 198 | 10.0 | 13.0 | 0.00 | 0.00 | 0.00 | 64 | 1013.6 |
| 20260904134151 | 72 | 191 | 10.0 | 14.0 | 0.00 | 0.00 | 0.00 | 66 | 1013.5 |
| 20260904133433 | 71 | 194 | 10.0 | 15.0 | 0.00 | 0.00 | 0.00 | 68 | 1013.4 |
| 20260904133134 | 71 | 190 | 10.0 | 15.0 | 0.00 | 0.00 | 0.00 | 69 | 1013.5 |
| 20260904132834 | 70 | 190 | 10.0 | 15.0 | 0.00 | 0.00 | 0.00 | 69 | 1013.5 |
| 20260904132533 | 70 | 188 | 10.0 | 17.0 | 0.00 | 0.00 | 0.00 | 69 | 1013.3 |
| 20260904132225 | 70 | 188 | 10.0 | 17.0 | 0.00 | 0.00 | 0.00 | 70 | 1013.2 |
| 20260904131919 | 70 | 187 | 10.0 | 17.0 | 0.00 | 0.00 | 0.00 | 70 | 1013.2 |
| 20260904131617 | 70 | 186 | 10.0 | 17.0 | 0.00 | 0.00 | 0.00 | 70 | 1013.2 |
| 20260904131317 | 69 | 186 | 10.0 | 17.0 | 0.00 | 0.00 | 0.00 | 71 | 1013.2 |
| 20260904130129 | 68 | 187 | 10.0 | 14.0 | 0.00 | 0.00 | 0.00 | 71 | 1013.1 |
| 20260904125404 | 68 | 188 | 10.0 | 14.0 | 0.00 | 0.00 | 0.00 | 71 | 1013.1 |
| 20260904125106 | 68 | 188 | 10.0 | 14.0 | 0.00 | 0.00 | 0.00 | 71 | 1013.0 |
| 20260904124810 | 68 | 188 | 9.0 | 14.0 | 0.00 | 0.00 | 0.00 | 71 | 1013.0 |
| 20260904124514 | 68 | 189 | 9.0 | 14.0 | 0.00 | 0.00 | 0.00 | 71 | 1013.0 |
| 20260904124200 | 68 | 190 | 8.0 | 14.0 | 0.00 | 0.00 | 0.00 | 71 | 1013.0 |
| 20260904123857 | 68 | 190 | 8.0 | 14.0 | 0.00 | 0.00 | 0.00 | 71 | 1013.0 |
| 20260904123130 | 68 | 192 | 8.0 | 14.0 | 0.00 | 0.00 | 0.00 | 71 | 1013.0 |
| 20260904122403 | 68 | 192 | 8.0 | 12.0 | 0.00 | 0.00 | 0.00 | 71 | 1013.0 |
| 20260904121635 | 68 | 193 | 6.0 | 12.0 | 0.00 | 0.00 | 0.00 | 71 | 1013.1 |
| 20260904120455 | 68 | 193 | 6.0 | 11.0 | 0.00 | 0.00 | 0.00 | 70 | 1012.9 |
| 20260904120157 | 68 | 193 | 6.0 | 11.0 | 0.00 | 0.00 | 0.00 | 69 | 1013.0 |
| 20260904115845 | 68 | 193 | 6.0 | 11.0 | 0.00 | 0.00 | 0.00 | 69 | 1012.9 |
| 20260904115533 | 69 | 193 | 6.0 | 11.0 | 0.00 | 0.00 | 0.00 | 69 | 1013.0 |
| 20260904115220 | 69 | 193 | 6.0 | 11.0 | 0.00 | 0.00 | 0.00 | 69 | 1012.9 |